PBD124 URSS-UUWW

Flight info

Callsign PBD124
Flight time N/A
Altitude 35000
Route IRGID1D IRGID A944 BEMES DCT KOTOD DCT AST DCT LIDUS N50 OBABI DCT UMRAL P163 GOLRI L736 OLOPI OLOPI3A
Aircraft B738/M-SDE2E3FGHIRWXY/LB1

Departure

Time N/A
Airport Sochi International Airport (URSS)

Arrival

Time 2026-04-30 19:24
Airport Vnukovo International Airport (UUWW)
Time Latitude Longitude Altitude Speed Heading
2026-04-30 18:23 50.96192 42.96029 37189 ft 458 kts 333°
2026-04-30 18:23 50.99156 42.93966 37195 ft 461 kts 333°
2026-04-30 18:23 51.05025 42.89885 37186 ft 464 kts 333°
2026-04-30 18:24 51.13955 42.83690 37174 ft 467 kts 333°
2026-04-30 18:25 51.19921 42.79543 37190 ft 467 kts 333°
2026-04-30 18:25 51.28826 42.73330 37175 ft 466 kts 333°
2026-04-30 18:26 51.34806 42.69268 36791 ft 466 kts 334°
2026-04-30 18:26 51.37793 42.67286 36550 ft 462 kts 335°
2026-04-30 18:26 51.39762 42.65982 36385 ft 459 kts 334°
2026-04-30 18:27 51.46633 42.61404 36207 ft 463 kts 335°
2026-04-30 18:28 51.54560 42.56070 36171 ft 462 kts 334°
2026-04-30 18:28 51.63417 42.50078 36171 ft 458 kts 334°
2026-04-30 18:29 51.75111 42.42125 36182 ft 456 kts 334°
2026-04-30 18:30 51.86827 42.34112 36178 ft 457 kts 334°
2026-04-30 18:31 51.95605 42.28079 36180 ft 459 kts 334°
2026-04-30 18:32 52.04477 42.21956 36180 ft 462 kts 334°
2026-04-30 18:33 52.13343 42.15810 36186 ft 464 kts 334°
2026-04-30 18:33 52.22250 42.09609 36193 ft 465 kts 335°
2026-04-30 18:34 52.31182 42.03364 36183 ft 464 kts 334°
2026-04-30 18:35 52.37122 41.99195 36186 ft 464 kts 334°
2026-04-30 18:35 52.43023 41.95042 36185 ft 463 kts 334°
2026-04-30 18:36 52.51903 41.88768 36193 ft 467 kts 335°
2026-04-30 18:37 52.60928 41.82362 36187 ft 472 kts 335°
2026-04-30 18:37 52.66974 41.78056 36185 ft 474 kts 335°
2026-04-30 18:38 52.73041 41.73723 36197 ft 474 kts 335°
2026-04-30 18:38 52.79060 41.69409 36190 ft 474 kts 335°
2026-04-30 18:39 52.85119 41.65055 36187 ft 473 kts 335°
2026-04-30 18:39 52.91166 41.60695 36190 ft 473 kts 335°
2026-04-30 18:40 52.97164 41.56357 36193 ft 472 kts 335°
2026-04-30 18:40 53.03159 41.52008 36192 ft 471 kts 335°
2026-04-30 18:41 53.09179 41.47627 36191 ft 471 kts 335°
2026-04-30 18:41 53.15179 41.43249 36194 ft 470 kts 335°
2026-04-30 18:42 53.21138 41.38886 36193 ft 470 kts 335°
2026-04-30 18:42 53.30132 41.32276 36201 ft 469 kts 335°
2026-04-30 18:45 53.56468 41.03065 36217 ft 464 kts 298°
2026-04-30 18:45 53.57995 40.98264 36200 ft 465 kts 298°
2026-04-30 18:46 53.61050 40.88714 36207 ft 465 kts 298°
2026-04-30 18:46 53.64150 40.79126 36205 ft 465 kts 298°
2026-04-30 18:47 53.67257 40.69540 36211 ft 465 kts 298°
2026-04-30 18:47 53.70338 40.60008 36213 ft 465 kts 298°
2026-04-30 18:48 53.73434 40.50388 36214 ft 465 kts 298°
2026-04-30 18:48 53.76507 40.40795 36210 ft 465 kts 298°
2026-04-30 18:49 53.79591 40.31131 36212 ft 466 kts 298°
2026-04-30 18:49 53.82644 40.21526 36210 ft 466 kts 298°
2026-04-30 18:50 53.85709 40.11842 36209 ft 466 kts 298°
2026-04-30 18:50 53.88770 40.02134 36212 ft 466 kts 298°
2026-04-30 18:50 53.90302 39.97260 36034 ft 469 kts 298°
2026-04-30 18:51 53.91838 39.92364 35792 ft 469 kts 298°
2026-04-30 18:51 53.93334 39.87585 35561 ft 459 kts 298°
2026-04-30 18:51 53.94820 39.82829 35323 ft 451 kts 298°
2026-04-30 18:51 53.96291 39.78112 35098 ft 451 kts 298°
2026-04-30 18:52 53.97764 39.73379 34865 ft 454 kts 298°
2026-04-30 18:52 53.99245 39.68611 34212 ft 456 kts 298°
2026-04-30 18:52 54.00706 39.63898 33534 ft 456 kts 298°
2026-04-30 18:52 54.02185 39.59116 32840 ft 456 kts 298°
2026-04-30 18:53 54.03660 39.54339 32169 ft 456 kts 298°
2026-04-30 18:53 54.05147 39.49514 31463 ft 457 kts 297°
2026-04-30 18:53 54.06622 39.44717 30762 ft 457 kts 297°
2026-04-30 18:53 54.08083 39.39957 29989 ft 458 kts 297°
2026-04-30 18:54 54.09561 39.35132 29127 ft 458 kts 297°
2026-04-30 18:54 54.11031 39.30324 28308 ft 456 kts 297°
2026-04-30 18:54 54.12477 39.25583 27500 ft 455 kts 297°
2026-04-30 18:54 54.13948 39.20755 26663 ft 454 kts 297°
2026-04-30 18:55 54.15376 39.16055 26288 ft 443 kts 297°
2026-04-30 18:55 54.18126 39.06975 25863 ft 417 kts 297°
2026-04-30 18:55 54.19439 39.02633 25676 ft 405 kts 296°
2026-04-30 18:56 54.21947 38.94311 25359 ft 383 kts 297°
2026-04-30 18:56 54.23396 38.90557 25235 ft 383 kts 314°
2026-04-30 18:56 54.25469 38.87794 25228 ft 376 kts 330°
2026-04-30 18:57 54.30093 38.83872 25209 ft 360 kts 334°
2026-04-30 18:57 54.32343 38.82027 24963 ft 355 kts 333°
2026-04-30 18:57 54.34568 38.80180 24903 ft 360 kts 333°
2026-04-30 18:58 54.39220 38.76248 24731 ft 382 kts 333°
2026-04-30 18:58 54.41591 38.74224 24636 ft 379 kts 333°
2026-04-30 18:58 54.43938 38.72216 24549 ft 374 kts 333°
2026-04-30 18:59 54.48590 38.68226 24405 ft 373 kts 333°
2026-04-30 19:00 54.55534 38.62233 24175 ft 372 kts 333°
2026-04-30 19:00 54.57849 38.60228 24109 ft 372 kts 333°
2026-04-30 19:00 54.62475 38.56217 23953 ft 371 kts 333°
2026-04-30 19:01 54.67091 38.52203 23807 ft 371 kts 333°
2026-04-30 19:01 54.69362 38.50226 23698 ft 368 kts 333°
2026-04-30 19:02 54.73892 38.46275 23026 ft 360 kts 334°
2026-04-30 19:02 54.78322 38.42436 22084 ft 357 kts 334°
2026-04-30 19:03 54.82726 38.38613 21393 ft 349 kts 333°
2026-04-30 19:03 54.87204 38.35859 21087 ft 343 kts 352°
2026-04-30 19:04 54.92016 38.34738 20798 ft 352 kts 352°
2026-04-30 19:04 54.96834 38.33565 20502 ft 347 kts 352°
2026-04-30 19:05 55.01580 38.32368 20231 ft 343 kts 352°
2026-04-30 19:05 55.06304 38.31163 19969 ft 341 kts 352°
2026-04-30 19:06 55.10993 38.29962 19580 ft 338 kts 352°
2026-04-30 19:06 55.13301 38.29370 19195 ft 337 kts 352°
2026-04-30 19:06 55.17673 38.27543 18313 ft 339 kts 339°
2026-04-30 19:07 55.21960 38.24444 17713 ft 330 kts 338°
2026-04-30 19:07 55.24070 38.22927 17528 ft 325 kts 338°
2026-04-30 19:08 55.27725 38.19619 16975 ft 328 kts 313°
2026-04-30 19:08 55.29070 38.12224 16131 ft 330 kts 266°
2026-04-30 19:08 55.28731 38.08786 15793 ft 330 kts 258°
2026-04-30 19:09 55.27700 38.01136 15035 ft 328 kts 257°
2026-04-30 19:09 55.27179 37.97302 14656 ft 326 kts 258°
2026-04-30 19:09 55.26659 37.93426 14283 ft 325 kts 258°
2026-04-30 19:10 55.25880 37.85765 13972 ft 308 kts 263°
2026-04-30 19:10 55.25310 37.78569 13794 ft 289 kts 263°
2026-04-30 19:11 55.25030 37.75132 13532 ft 281 kts 263°
2026-04-30 19:11 55.24561 37.69523 12669 ft 281 kts 263°
2026-04-30 19:11 55.24185 37.65136 12447 ft 265 kts 263°
2026-04-30 19:12 55.23915 37.62024 12329 ft 251 kts 263°
2026-04-30 19:12 55.23656 37.59049 12110 ft 243 kts 263°
2026-04-30 19:12 55.23404 37.56152 11736 ft 238 kts 263°
2026-04-30 19:13 55.22986 37.51354 10883 ft 239 kts 263°
2026-04-30 19:13 55.23570 37.46036 9998 ft 224 kts 321°
2026-04-30 19:13 55.24736 37.44396 9852 ft 208 kts 321°
2026-04-30 19:14 55.25793 37.42819 9714 ft 192 kts 320°
2026-04-30 19:14 55.26778 37.41333 9358 ft 187 kts 320°
2026-04-30 19:14 55.27758 37.39844 8901 ft 186 kts 320°
2026-04-30 19:14 55.28738 37.38348 8464 ft 185 kts 320°
2026-04-30 19:15 55.29703 37.36867 8049 ft 184 kts 320°
2026-04-30 19:15 55.31616 37.33919 7097 ft 187 kts 320°
2026-04-30 19:15 55.32616 37.32372 6492 ft 198 kts 320°
2026-04-30 19:16 55.33671 37.30739 5767 ft 210 kts 319°
2026-04-30 19:16 55.34803 37.28980 5380 ft 215 kts 319°
2026-04-30 19:16 55.37024 37.25520 5135 ft 244 kts 319°
2026-04-30 19:17 55.38304 37.23523 4917 ft 245 kts 319°
2026-04-30 19:17 55.40853 37.19535 4487 ft 244 kts 318°
2026-04-30 19:17 55.42119 37.17552 4278 ft 243 kts 318°
2026-04-30 19:18 55.44146 37.14374 3958 ft 232 kts 318°
2026-04-30 19:18 55.45699 37.11936 3706 ft 218 kts 318°
2026-04-30 19:18 55.46813 37.10186 3528 ft 210 kts 318°
2026-04-30 19:19 55.47866 37.08529 3370 ft 197 kts 318°
2026-04-30 19:19 55.48869 37.06955 3197 ft 193 kts 320°
2026-04-30 19:19 55.51301 37.05196 2904 ft 191 kts 341°
2026-04-30 19:20 55.52548 37.04468 2751 ft 193 kts 342°
2026-04-30 19:20 55.53863 37.04265 2550 ft 191 kts 20°
2026-04-30 19:20 55.55167 37.07924 2497 ft 177 kts 69°
2026-04-30 19:21 55.55591 37.09953 2302 ft 173 kts 68°
2026-04-30 19:21 55.56344 37.13540 1907 ft 148 kts 68°
2026-04-30 19:22 55.57094 37.16964 1489 ft 151 kts 67°
2026-04-30 19:22 55.58211 37.21908 939 ft 151 kts 67°
2026-04-30 19:23 55.59190 37.26293 668 ft 79 kts 68°
2026-04-30 19:24 55.59456 37.27378 674 ft 41 kts 50°
2026-04-30 19:24 55.59558 37.27552 673 ft 5 kts 40°
2026-04-30 19:24 55.59569 37.27568 675 ft 0 kts 40°